This is the latest recevied weather packets stored in our database for station/object N4QD-13. If no packets are shown the sender has not sent any weather packets the latest 10 day(s).
| Time | Temp. | Humidity | Pressure | Rain* | Wind** | Luminosity | Snow |
|---|---|---|---|---|---|---|---|
| 1778029302 | 22.22° C | 44% | 1012.1 hPa | 0 mm | - | 0 W/m² | - |
| 1778028999 | 22.22° C | 44% | 1012 hPa | 0 mm | - | 0 W/m² | - |
| 1778028696 | 21.67° C | 44% | 1012.2 hPa | 0 mm | - | 0 W/m² | - |
| 1778028392 | 22.22° C | 44% | 1011.8 hPa | 0 mm | - | 0 W/m² | - |
| 1778028090 | 22.22° C | 43% | 1011.9 hPa | 0 mm | - | 0 W/m² | - |
| 1778027786 | 22.22° C | 43% | 1012 hPa | 0 mm | - | 0 W/m² | - |
| 1778027482 | 22.78° C | 43% | 1012 hPa | 0 mm | - | 0 W/m² | - |
| 1778027178 | 22.78° C | 42% | 1012.1 hPa | 0 mm | - | 0 W/m² | - |
| 1778026874 | 23.33° C | 41% | 1011.7 hPa | 0 mm | - | 0 W/m² | - |
| 1778026571 | 22.78° C | 42% | 1011.5 hPa | 0 mm | - | 0 W/m² | - |
| 1778026268 | 22.78° C | 42% | 1011.7 hPa | 0 mm | - | 1 W/m² | - |
| 1778025966 | 22.78° C | 42% | 1011.5 hPa | 0 mm | - | 3 W/m² | - |
| 1778025662 | 22.78° C | 41% | 1011.5 hPa | 0 mm | - | 6 W/m² | - |
| 1778025361 | 23.33° C | 40% | 1011.7 hPa | 0 mm | - | 9 W/m² | - |
| 1778025058 | 23.33° C | 39% | 1011.7 hPa | 0 mm | - | 13 W/m² | - |
| 1778024754 | 23.33° C | 39% | 1011.5 hPa | 0 mm | - | 17 W/m² | - |
| 1778024451 | 23.89° C | 38% | 1011.5 hPa | 0 mm | - | 23 W/m² | - |
| 1778024149 | 23.89° C | 39% | 1011.2 hPa | 0 mm | - | 30 W/m² | - |
| 1778023846 | 23.89° C | 39% | 1011.6 hPa | 0 mm | - | 38 W/m² | - |
| 1778023544 | 23.89° C | 38% | 1011.4 hPa | 0 mm | - | 49 W/m² | - |
| 1778023241 | 24.44° C | 38% | 1011.8 hPa | 0 mm | - | 56 W/m² | - |
| 1778022937 | 24.44° C | 37% | 1011.4 hPa | 0 mm | - | 47 W/m² | - |
| 1778022636 | 24.44° C | 38% | 1011.5 hPa | 0 mm | - | 46 W/m² | - |
| 1778022333 | 24.44° C | 37% | 1011.3 hPa | 0 mm | - | 64 W/m² | - |
| 1778022030 | 24.44° C | 37% | 1011.4 hPa | 0 mm | - | 77 W/m² | - |
* Rain latest hour (hover to see other rain measurements)
** Current wind speed in m/s (hover to see current wind gust speed)